Location: *
(32.8140°S, 174.6161°E)
Time: 06:22:57
(UTC+00:00)

DELTA 2 R/B (1) - Pass Details

Date: 10 December 2019
Orbit: 791 x 802 km, 39.6° (Epoch: 28 January)

Event Time Altitude Azimuth Distance (km) Brightness Sun altitude
Rises 15:07:56 0° 246° (WSW) 3,319 6.6 -20.6°
Reaches altitude 10° 15:10:26 10° 245° (WSW) 2,384 5.9 -20.2°
Maximum altitude 15:16:05 87° 156° (SSE) 807 3.5 -19.4°
Drops below altitude 10° 15:21:42 10° 66° (ENE) 2,363 6.3 -18.6°
Sets 15:24:10 0° 65° (ENE) 3,287 7.1 -18.2°
